Location: Unspecified
(0.0000°N, 0.0000°E)
Time: 02:10:27
(UTC+00:00)

OTV 5 (USA 277) - Pass Details

Date: 15 February 2019
Orbit: 342 x 346 km, 54.5° (Epoch: 09 February)

Event Time Altitude Azimuth Distance (km) Brightness Sun altitude
Rises 19:59:28 0° 216° (SW) 2,135 ? -25.7°
Reaches altitude 10° 20:01:29 10° 219° (SW) 1,292 ? -26.1°
Enters shadow 20:01:51 13° 220° (SW) 1,137 ? -26.2°
